When you browse on this site, cookies collect data to enhance your experience and personalize the content and advertising you see.
Visit our Privacy Policy to learn more. By continuing to use the site, you agree to this use of cookies and data.
  • în România
  • Lista ţărilor
  • Pe 7 zile
  • Temperatura apei
  • Hartă satelitară
  • Meteo pe hartă
  • Widget-uri
  • user-avatar
    Intrare

    Meteo pe oră la Babadag

    Astăzi, 19 Decembrie, Miercuri

    Timp Temperatura Precipitaţii Vânt Presiune Umiditate
    00:00 -6°C° 0 mm 7 m/s 765 mmHg 77%
    01:00 -6°C° 0 mm 7 m/s 765 mmHg 77%
    02:00 -6°C° 0 mm 7 m/s 765 mmHg 77%
    03:00 -7°C° 0 mm 7 m/s 765 mmHg 77%
    04:00 -7°C° 0 mm 7 m/s 765 mmHg 77%
    05:00 -7°C° 0 mm 8 m/s 765 mmHg 77%
    06:00 -7°C° 0 mm 7 m/s 765 mmHg 77%
    07:00 -7°C° 0 mm 7 m/s 765 mmHg 78%
    08:00 -7°C° 0 mm 7 m/s 765 mmHg 78%
    09:00 -7°C° 0 mm 8 m/s 765 mmHg 77%
    10:00 -7°C° 0 mm 8 m/s 765 mmHg 76%
    11:00 -6°C° 0 mm 8 m/s 766 mmHg 75%
    12:00 -6°C° 0 mm 8 m/s 765 mmHg 74%
    13:00 -6°C° 0 mm 8 m/s 765 mmHg 73%
    14:00 -6°C° 0 mm 8 m/s 765 mmHg 72%
    15:00 -6°C° 0 mm 7 m/s 765 mmHg 72%
    16:00 -6°C° 0 mm 7 m/s 765 mmHg 73%
    17:00 -5°C° 0 mm 6 m/s 765 mmHg 74%
    18:00 -5°C° 0 mm 6 m/s 766 mmHg 75%
    19:00 -6°C° 0 mm 6 m/s 766 mmHg 76%
    20:00 -7°C° 0 mm 7 m/s 766 mmHg 77%
    21:00 -6°C° 0 mm 6 m/s 766 mmHg 78%
    22:00 -6°C° 0 mm 6 m/s 766 mmHg 79%
    23:00 -6°C° 0 mm 6 m/s 766 mmHg 80%

    Mâine, 20 Decembrie, Joi

    Timp Temperatura Precipitaţii Vânt Presiune Umiditate
    00:00 -8°C° 0 mm 6 m/s 766 mmHg 80%
    01:00 -7°C° 0 mm 5 m/s 766 mmHg 81%
    02:00 -7°C° 0 mm 5 m/s 766 mmHg 81%
    03:00 -7°C° 0 mm 5 m/s 766 mmHg 82%
    04:00 -7°C° 0 mm 4 m/s 766 mmHg 83%
    05:00 -7°C° 0 mm 4 m/s 766 mmHg 83%
    06:00 -7°C° 0 mm 4 m/s 766 mmHg 83%
    07:00 -6°C° 0 mm 3 m/s 767 mmHg 83%
    08:00 -6°C° 0 mm 3 m/s 767 mmHg 83%
    09:00 -5°C° 0 mm 3 m/s 767 mmHg 81%
    10:00 -3°C° 0 mm 2 m/s 767 mmHg 79%
    11:00 -2°C° 0 mm 2 m/s 767 mmHg 77%
    12:00 -2°C° 0 mm 2 m/s 767 mmHg 77%
    13:00 -1°C° 0 mm 2 m/s 767 mmHg 76%
    14:00 +2°C° 0 mm 1 m/s 766 mmHg 76%
    15:00 +1°C° 0 mm 1 m/s 766 mmHg 79%
    16:00 0°C° 0 mm 1 m/s 766 mmHg 82%
    17:00 0°C° 0 mm 1 m/s 766 mmHg 85%
    18:00 0°C° 0 mm 1 m/s 766 mmHg 86%
    19:00 0°C° 0 mm 1 m/s 766 mmHg 87%
    20:00 0°C° 0 mm 1 m/s 766 mmHg 88%
    21:00 0°C° 0 mm 1 m/s 766 mmHg 89%
    22:00 0°C° 0 mm 1 m/s 766 mmHg 89%
    23:00 0°C° 0 mm 1 m/s 766 mmHg 90%

    Poimâine, 21 Decembrie, Vineri

    Timp Temperatura Precipitaţii Vânt Presiune Umiditate
    00:00 -2°C° 0 mm 2 m/s 766 mmHg 90%
    01:00 -2°C° 0 mm 2 m/s 766 mmHg 90%
    02:00 -2°C° 0 mm 2 m/s 766 mmHg 90%
    03:00 -2°C° 0 mm 2 m/s 766 mmHg 91%
    04:00 -2°C° 0 mm 2 m/s 765 mmHg 91%
    05:00 -2°C° 0 mm 2 m/s 765 mmHg 91%
    06:00 -2°C° 0 mm 2 m/s 765 mmHg 91%
    07:00 -2°C° 0 mm 2 m/s 765 mmHg 90%
    08:00 -2°C° 0 mm 2 m/s 765 mmHg 90%
    09:00 -2°C° 0 mm 3 m/s 765 mmHg 85%
    10:00 -1°C° 0 mm 3 m/s 765 mmHg 80%
    11:00 0°C° 0 mm 3 m/s 765 mmHg 76%
    12:00 0°C° 0 mm 3 m/s 765 mmHg 75%
    13:00 0°C° 0 mm 3 m/s 764 mmHg 75%
    14:00 +1°C° 0 mm 3 m/s 763 mmHg 74%
    15:00 0°C° 0 mm 3 m/s 763 mmHg 78%
    16:00 -1°C° 0 mm 3 m/s 763 mmHg 83%
    17:00 -2°C° 0 mm 3 m/s 763 mmHg 87%
    18:00 -2°C° 0 mm 3 m/s 763 mmHg 88%
    19:00 -2°C° 0 mm 3 m/s 763 mmHg 89%
    20:00 -3°C° 0 mm 2 m/s 763 mmHg 90%
    21:00 -3°C° 0 mm 2 m/s 763 mmHg 90%
    22:00 -3°C° 0 mm 2 m/s 763 mmHg 90%
    23:00 -3°C° 0 mm 2 m/s 762 mmHg 90%

    22 Decembrie, Sâmbătă

    Timp Temperatura Precipitaţii Vânt Presiune Umiditate
    00:00 -3°C° 0 mm 2 m/s 762 mmHg 90%
    01:00 -3°C° 0 mm 2 m/s 762 mmHg 90%
    02:00 -3°C° 0 mm 2 m/s 762 mmHg 89%
    03:00 -2°C° 0 mm 2 m/s 761 mmHg 88%
    04:00 -2°C° 0 mm 2 m/s 761 mmHg 87%
    05:00 -2°C° 0 mm 2 m/s 761 mmHg 85%
    06:00 -1°C° 0 mm 3 m/s 761 mmHg 85%
    07:00 -1°C° 0 mm 3 m/s 760 mmHg 84%
    08:00 -1°C° 0 mm 4 m/s 760 mmHg 83%
    09:00 0°C° 0 mm 5 m/s 760 mmHg 79%
    10:00 +1°C° 0 mm 6 m/s 760 mmHg 75%
    11:00 +2°C° 0 mm 7 m/s 760 mmHg 70%
    12:00 +3°C° 0 mm 7 m/s 759 mmHg 70%
    13:00 +3°C° 0 mm 7 m/s 759 mmHg 69%
    14:00 +4°C° 0 mm 7 m/s 758 mmHg 69%
    15:00 +3°C° 0 mm 6 m/s 758 mmHg 73%
    16:00 +2°C° 0 mm 6 m/s 758 mmHg 77%
    17:00 +1°C° 0 mm 5 m/s 758 mmHg 82%
    18:00 +1°C° 0 mm 5 m/s 758 mmHg 84%
    19:00 0°C° 0 mm 4 m/s 758 mmHg 86%
    20:00 0°C° 0 mm 4 m/s 758 mmHg 88%
    21:00 0°C° 0.5 mm 4 m/s 758 mmHg 89%
    22:00 +1°C° 0.5 mm 4 m/s 758 mmHg 91%
    23:00 +1°C° 0.5 mm 4 m/s 758 mmHg 92%

    23 Decembrie, Duminică

    Timp Temperatura Precipitaţii Vânt Presiune Umiditate
    00:00 +1°C° 0 mm 4 m/s 757 mmHg 91%
    01:00 +1°C° 0 mm 5 m/s 757 mmHg 91%
    02:00 +1°C° 0 mm 6 m/s 756 mmHg 90%
    03:00 +1°C° 0 mm 6 m/s 756 mmHg 88%
    04:00 +2°C° 0 mm 6 m/s 756 mmHg 86%
    05:00 +2°C° 0 mm 7 m/s 756 mmHg 84%
    06:00 +2°C° 0 mm 6 m/s 756 mmHg 83%
    07:00 +2°C° 0 mm 6 m/s 756 mmHg 82%
    08:00 +2°C° 0 mm 6 m/s 757 mmHg 81%
    09:00 +3°C° 0 mm 5 m/s 757 mmHg 79%
    10:00 +5°C° 0 mm 5 m/s 757 mmHg 77%
    11:00 +6°C° 0 mm 5 m/s 757 mmHg 75%
    12:00 +7°C° 0 mm 6 m/s 757 mmHg 71%
    13:00 +8°C° 0 mm 6 m/s 757 mmHg 66%
    14:00 +9°C° 0 mm 6 m/s 757 mmHg 62%
    15:00 +7°C° 0 mm 6 m/s 757 mmHg 66%
    16:00 +5°C° 0 mm 6 m/s 758 mmHg 70%
    17:00 +5°C° 0 mm 5 m/s 758 mmHg 74%
    18:00 +5°C° 0 mm 5 m/s 758 mmHg 74%
    19:00 +5°C° 0 mm 5 m/s 759 mmHg 73%
    20:00 +3°C° 0 mm 5 m/s 759 mmHg 73%
    21:00 +3°C° 0 mm 5 m/s 759 mmHg 74%
    22:00 +3°C° 0 mm 5 m/s 759 mmHg 75%
    23:00 +3°C° 0 mm 5 m/s 759 mmHg 76%

    24 Decembrie, Luni

    Timp Temperatura Precipitaţii Vânt Presiune Umiditate
    00:00 +3°C° 0 mm 5 m/s 759 mmHg 75%
    01:00 +2°C° 0 mm 5 m/s 759 mmHg 74%
    02:00 +2°C° 0 mm 5 m/s 759 mmHg 73%
    03:00 +2°C° 0 mm 5 m/s 759 mmHg 73%
    04:00 +2°C° 0 mm 5 m/s 759 mmHg 72%
    05:00 +2°C° 0 mm 5 m/s 759 mmHg 72%
    06:00 +2°C° 0 mm 5 m/s 759 mmHg 73%
    07:00 +1°C° 0 mm 4 m/s 759 mmHg 74%
    08:00 +1°C° 0 mm 4 m/s 760 mmHg 75%
    09:00 +3°C° 0 mm 4 m/s 759 mmHg 70%
    10:00 +5°C° 0 mm 5 m/s 759 mmHg 66%
    11:00 +6°C° 0 mm 5 m/s 759 mmHg 62%
    12:00 +6°C° 0 mm 5 m/s 759 mmHg 61%
    13:00 +7°C° 0 mm 5 m/s 759 mmHg 61%
    14:00 +7°C° 0 mm 5 m/s 758 mmHg 60%
    15:00 +6°C° 0 mm 4 m/s 758 mmHg 66%
    16:00 +5°C° 0 mm 4 m/s 758 mmHg 72%
    17:00 +5°C° 0 mm 3 m/s 758 mmHg 77%
    18:00 +4°C° 0 mm 3 m/s 758 mmHg 79%
    19:00 +4°C° 0 mm 3 m/s 758 mmHg 81%
    20:00 +4°C° 0 mm 3 m/s 759 mmHg 83%
    21:00 +3°C° 0 mm 3 m/s 759 mmHg 82%
    22:00 +3°C° 0 mm 4 m/s 759 mmHg 82%
    23:00 +3°C° 0 mm 4 m/s 760 mmHg 81%
    Arată mai mult